Weather History for Paynesville, MN

Change the Weather History Date:

Tuesday, November 13, 2012

  Actual Average (KLJF) Record (KLJF)
Temperature  
Mean Temperature 27 °F -  
Max Temperature 41 °F 38 °F 71 °F (1999)
Min Temperature 13 °F 23 °F -4 °F (1986)
Degree Days  
Heating Degree Days 38    
Moisture  
Dew Point 21 °F    
Average Humidity 75    
Maximum Humidity 91    
Minimum Humidity 54    
Precipitation  
Precipitation 0.00 in - - ()
Sea Level Pressure  
Sea Level Pressure 30.25 in    
Wind  
Wind Speed 4 mph (SSE)    
Max Wind Speed 9 mph    
Max Gust Speed -    
Visibility 10 miles    
Events      
Averages and records for this station are not official NWS values.
T = Trace of Precipitation, MM = Missing Value Source: NWS Daily Summary

Daily Weather History Graph

Daily Weather History Graph

Search for Another Location

Airport:

Trip Planner

Search our weather history database for the weather conditions in past years. The results will help you decide how hot, cold, wet, or windy it might be!

Date:

Astronomy

Nov. 13, 2012 Rise Set
Actual Time 7:15 AM CST 4:50 PM CST
Civil Twilight 6:43 AM CST 5:22 PM CST
Nautical Twilight 6:07 AM CST 5:58 PM CST
Astronomical Twilight 5:33 AM CST 6:32 PM CST
Moon 6:55 AM CST (11/13) 4:42 PM CST (11/13)
Length of Visible Light 10h 38m
Length of Day
9h 34m
Waning Crescent, 0% of the Moon is Illuminated
Nov 13
Waning Crescent
Nov 13
New
Nov 20
First Quarter
Nov 28
Full
Dec 6
Last Quarter

Hourly Weather History & Observations

Time (CST) Temp. Windchill Dew Point Humidity Pressure Visibility Wind Dir Wind Speed Gust Speed Precip Events Conditions
12:13 AM 14.5 °F 7.1 °F 12.2 °F 90% 30.26 in 10.0 mi West 4.6 mph - N/A   Clear
12:33 AM 14.0 °F - 11.7 °F 90% 30.26 in 10.0 mi Calm Calm - N/A   Clear
12:54 AM 14.5 °F 8.8 °F 12.0 °F 90% 30.26 in 10.0 mi WSW 3.5 mph - N/A   Clear
1:14 AM 14.5 °F - 11.5 °F 88% 30.26 in 10.0 mi Calm Calm - N/A   Clear
1:33 AM 14.7 °F - 11.8 °F 88% 30.26 in 10.0 mi Calm Calm - N/A   Clear
1:53 AM 14.4 °F - 11.5 °F 88% 30.27 in 10.0 mi Calm Calm - N/A   Clear
2:14 AM 14.5 °F - 11.8 °F 89% 30.27 in 10.0 mi Calm Calm - N/A   Clear
2:33 AM 14.9 °F - 12.2 °F 89% 30.27 in 10.0 mi Calm Calm - N/A   Clear
2:53 AM 15.1 °F - 12.7 °F 90% 30.26 in 10.0 mi Calm Calm - N/A   Clear
3:14 AM 13.6 °F - 11.1 °F 90% 30.26 in 10.0 mi Calm Calm - N/A   Clear
3:33 AM 13.1 °F - 10.9 °F 91% 30.27 in 10.0 mi Calm Calm - N/A   Clear
3:54 AM 14.0 °F - 11.5 °F 90% 30.26 in 10.0 mi Calm Calm - N/A   Clear
4:13 AM 14.7 °F - 12.2 °F 90% 30.26 in 10.0 mi Calm Calm - N/A   Clear
4:33 AM 17.8 °F - 13.8 °F 84% 30.26 in 10.0 mi Calm Calm - N/A   Clear
4:54 AM 18.3 °F 13.1 °F 14.0 °F 83% 30.28 in 10.0 mi SSW 3.5 mph - N/A   Clear
5:13 AM 18.1 °F - 14.0 °F 84% 30.28 in 10.0 mi Calm Calm - N/A   Clear
5:33 AM 18.0 °F - 14.0 °F 84% 30.28 in 10.0 mi Calm Calm - N/A   Clear
6:13 AM 18.3 °F 10.2 °F 14.9 °F 86% 30.28 in 10.0 mi SSE 5.8 mph - N/A   Clear
6:33 AM 18.5 °F 9.3 °F 15.4 °F 88% 30.28 in 10.0 mi South 6.9 mph - N/A   Clear
6:53 AM 18.1 °F 7.9 °F 14.9 °F 87% 30.28 in 10.0 mi South 8.1 mph - N/A   Clear
7:14 AM 18.0 °F 12.7 °F 14.5 °F 86% 30.28 in 10.0 mi SSE 3.5 mph - N/A   Clear
7:33 AM 18.5 °F 8.4 °F 14.9 °F 86% 30.28 in 10.0 mi SSE 8.1 mph - N/A   Clear
7:53 AM 19.4 °F 10.4 °F 15.4 °F 85% 30.28 in 10.0 mi SSE 6.9 mph - N/A   Clear
8:14 AM 20.7 °F 13.0 °F 15.8 °F 81% 30.29 in 10.0 mi SSE 5.8 mph - N/A   Clear
8:33 AM 21.9 °F 15.7 °F 16.7 °F 80% 30.29 in 10.0 mi South 4.6 mph - N/A   Clear
8:54 AM 23.5 °F 16.4 °F 17.8 °F 79% 30.28 in 10.0 mi SSE 5.8 mph - N/A   Clear
9:14 AM 24.8 °F 19.1 °F 18.5 °F 77% 30.28 in 10.0 mi SSE 4.6 mph - N/A   Clear
9:33 AM 25.9 °F 18.2 °F 19.6 °F 77% 30.28 in 10.0 mi SSE 6.9 mph - N/A   Clear
9:53 AM 27.9 °F 20.6 °F 20.3 °F 73% 30.28 in 10.0 mi SSE 6.9 mph - N/A   Clear
10:13 AM 29.1 °F 21.3 °F 20.5 °F 70% 30.29 in 10.0 mi SSE 8.1 mph - N/A   Clear
10:33 AM 30.7 °F 24.1 °F 21.4 °F 68% 30.29 in 10.0 mi SSE 6.9 mph - N/A   Clear
10:53 AM 32.2 °F 24.4 °F 22.5 °F 67% 30.29 in 10.0 mi South 9.2 mph - N/A   Clear
11:13 AM 33.8 °F 27.7 °F 22.8 °F 64% 30.29 in 10.0 mi South 6.9 mph - N/A   Clear
11:33 AM 34.7 °F 28.8 °F 23.4 °F 63% 30.28 in 10.0 mi South 6.9 mph - N/A   Clear
11:53 AM 35.6 °F 29.2 °F 22.6 °F 59% 30.27 in 10.0 mi South 8.1 mph - N/A   Clear
12:14 PM 36.9 °F 30.7 °F 23.4 °F 58% 30.26 in 10.0 mi South 8.1 mph - N/A   Clear
12:53 PM 38.3 °F 32.5 °F 24.1 °F 57% 30.24 in 10.0 mi South 8.1 mph - N/A   Clear
1:14 PM 38.3 °F 32.5 °F 23.7 °F 56% 30.24 in 10.0 mi SSE 8.1 mph - N/A   Clear
1:34 PM 39.4 °F 33.8 °F 25.0 °F 56% 30.24 in 10.0 mi SSE 8.1 mph - N/A   Clear
1:53 PM 41.0 °F 35.2 °F 25.5 °F 54% 30.23 in 10.0 mi SSE 9.2 mph - N/A   Clear
2:13 PM 39.4 °F 33.2 °F 24.4 °F 55% 30.23 in 10.0 mi SSE 9.2 mph - N/A   Clear
2:34 PM 39.4 °F 33.8 °F 24.6 °F 56% 30.23 in 10.0 mi South 8.1 mph - N/A   Scattered Clouds
2:53 PM 39.4 °F 34.5 °F 25.3 °F 57% 30.23 in 10.0 mi South 6.9 mph - N/A   Scattered Clouds
3:13 PM 39.4 °F 35.2 °F 25.5 °F 58% 30.23 in 10.0 mi SSE 5.8 mph - N/A   Clear
3:34 PM 38.8 °F 33.8 °F 26.2 °F 61% 30.24 in 10.0 mi SSE 6.9 mph - N/A   Scattered Clouds
3:53 PM 38.3 °F 31.9 °F 25.9 °F 61% 30.24 in 10.0 mi SSE 9.2 mph - N/A   Scattered Clouds
4:13 PM 37.4 °F 31.4 °F 25.9 °F 63% 30.23 in 10.0 mi SSE 8.1 mph - N/A   Scattered Clouds
4:33 PM 37.4 °F 32.1 °F 26.6 °F 65% 30.23 in 10.0 mi SSE 6.9 mph - N/A   Clear
4:53 PM 37.4 °F 32.8 °F 26.6 °F 65% 30.23 in 10.0 mi SE 5.8 mph - N/A   Mostly Cloudy
5:13 PM 36.9 °F 31.4 °F 27.0 °F 67% 30.23 in 10.0 mi SE 6.9 mph - N/A   Mostly Cloudy
5:33 PM 36.5 °F 33.9 °F 27.7 °F 70% 30.23 in 10.0 mi ESE 3.5 mph - N/A   Mostly Cloudy
5:53 PM 35.8 °F 31.9 °F 27.5 °F 72% 30.23 in 10.0 mi SE 4.6 mph - N/A   Mostly Cloudy
6:13 PM 35.8 °F 33.0 °F 27.9 °F 73% 30.23 in 10.0 mi ESE 3.5 mph - N/A   Scattered Clouds
6:33 PM 35.6 °F 30.7 °F 27.5 °F 72% 30.23 in 10.0 mi ESE 5.8 mph - N/A   Overcast
6:54 PM 35.6 °F 30.7 °F 27.9 °F 73% 30.23 in 10.0 mi SE 5.8 mph - N/A   Scattered Clouds
7:13 PM 36.1 °F 30.6 °F 27.9 °F 72% 30.23 in 10.0 mi SE 6.9 mph - N/A   Scattered Clouds
7:33 PM 36.1 °F 31.4 °F 27.5 °F 71% 30.23 in 10.0 mi SSE 5.8 mph - N/A   Overcast
7:53 PM 36.1 °F 31.4 °F 27.5 °F 71% 30.23 in 10.0 mi SSE 5.8 mph - N/A   Overcast
8:13 PM 35.6 °F 32.8 °F 27.5 °F 72% 30.23 in 10.0 mi South 3.5 mph - N/A   Overcast
8:34 PM 35.1 °F 31.0 °F 27.7 °F 74% 30.23 in 10.0 mi SSE 4.6 mph - N/A   Mostly Cloudy
8:54 PM 35.1 °F 31.0 °F 27.9 °F 75% 30.23 in 10.0 mi SSE 4.6 mph - N/A   Overcast
9:13 PM 35.1 °F - 27.9 °F 75% 30.24 in 10.0 mi Calm Calm - N/A   Overcast
9:33 PM 34.7 °F - 28.4 °F 78% 30.24 in 10.0 mi Calm Calm - N/A   Overcast
9:54 PM 34.7 °F - 28.4 °F 78% 30.24 in 10.0 mi Calm Calm - N/A   Overcast
10:13 PM 34.7 °F - 28.4 °F 78% 30.24 in 10.0 mi Calm Calm - N/A   Overcast
10:33 PM 34.9 °F 30.8 °F 28.8 °F 78% 30.24 in 10.0 mi SSE 4.6 mph - N/A   Overcast
10:53 PM 35.1 °F - 28.9 °F 78% 30.24 in 10.0 mi Calm Calm - N/A   Overcast
11:13 PM 34.9 °F - 28.9 °F 79% 30.24 in 10.0 mi Calm Calm - N/A   Overcast
11:34 PM 34.7 °F - 28.9 °F 79% 30.23 in 10.0 mi Calm Calm - N/A   Overcast
11:53 PM 34.7 °F - 28.8 °F 79% 30.23 in 10.0 mi Calm Calm - N/A   Overcast